Home   Weather   Chorzów   Past weeks

Flag for Poland Past Weather in Chorzów, Poland — Yesterday and Last 2 Weeks

57 °F

Sprinkles. Fog.

Feels Like: 54 °F
Forecast: 37 / 47 °F
Wind: 13 mph from Southwest

Location: Katowice Airport

Current Time: Oct 25, 2016 at 3:46:37 PM

Latest Report: Oct 25, 2016 at 3:00 PM

Visibility: 3 mi

Pressure: 30.09 "Hg

Humidity: 94%

Dew Point: 55 °F

Location of ChorzówLocation

Past Weather in Chorzów — Graph


Chorzów Temperature Yesterday

Maximum temperature yesterday: 61 °F (at 3:00 PM)
Minimum temperature yesterday: 43 °F (at 1:30 AM)
Average temperature yesterday: 50 °F

High & Low Weather Summary for the Past Weeks

High61 °F (Oct 24, 3:00 PM)100% (Oct 11, 2:30 AM)30.36 "Hg (Oct 11, 2:30 AM)
Low32 °F (Oct 14, 3:00 AM)44% (Oct 23, 3:00 PM)29.92 "Hg (Oct 21, 1:30 PM)
Average45 °F88%30.09 "Hg
* Reported Oct 10 2:00 PM — Oct 25 2:30 PM, Chorzów, Weather by CustomWeather, © 2016

Note: Actual official high and low records may vary slightly from our data, if they occured in-between our weather recording intervals... More about our weather records


Chorzów Weather History for the Previous 24 Hours

Scroll right to see more
Time TempWeatherWind HumidityBarometerVisibility
2:30 PM
Tue, Oct 25
57 °FPartly sunny.14 mph94%30.07 "Hg4 mi
2:00 PM59 °FLight rain. Broken clouds.15 mph88%30.07 "Hg4 mi
1:30 PM59 °FPartly sunny.15 mph88%30.07 "Hg4 mi
1:00 PM57 °FLight rain. Fog.14 mph94%30.07 "Hg3 mi
12:30 PM59 °FLight rain. Passing clouds.14 mph82%30.07 "HgN/A
12:00 PM59 °FPassing clouds.17 mph82%30.07 "HgN/A
11:30 AM59 °FScattered clouds.17 mph82%30.07 "HgN/A
11:00 AM57 °FPartly sunny.15 mph88%30.09 "HgN/A
10:30 AM57 °FPartly sunny.15 mph88%30.09 "HgN/A
10:00 AM55 °FLight rain. Passing clouds.12 mph88%30.07 "HgN/A
9:30 AM55 °FClear.6 mph88%30.07 "Hg5 mi
9:00 AM54 °FFog.8 mph94%30.07 "Hg3 mi
8:30 AM54 °FFog.6 mph94%30.04 "Hg2 mi
8:00 AM50 °FFog.5 mph94%30.01 "Hg2 mi
7:30 AM48 °FFog.2 mph100%30.01 "Hg1 mi
7:00 AM50 °FCool.2 mph94%30.01 "Hg2 mi
6:30 AM52 °FClear.7 mph94%30.01 "Hg4 mi
6:00 AM54 °FClear.6 mph88%30.01 "Hg4 mi
5:30 AM52 °FClear.6 mph94%30.01 "Hg4 mi
5:00 AM52 °FFog.8 mph94%30.01 "Hg3 mi
4:30 AM50 °FFog.6 mph94%30.01 "Hg3 mi
4:00 AM48 °FFog.3 mph94%30.04 "Hg3 mi
3:30 AM48 °FFog.1 mph94%30.04 "Hg3 mi
3:00 AM50 °FClear.1 mph94%30.04 "Hg4 mi
2:30 AM52 °FClear.5 mph88%30.01 "Hg5 mi
2:00 AM52 °FClear.6 mph88%30.01 "Hg5 mi
1:30 AM54 °FClear.7 mph82%30.01 "Hg5 mi
1:00 AM52 °FClear.7 mph88%30.04 "Hg4 mi
12:30 AM52 °FFog.9 mph88%30.04 "Hg3 mi
12:00 AM52 °FClear.9 mph88%30.04 "Hg4 mi
11:30 PM
Mon, Oct 24
54 °FClear.10 mph82%30.04 "Hg4 mi
11:00 PM54 °FClear.7 mph82%30.04 "Hg4 mi
10:30 PM54 °FClear.8 mph82%30.07 "Hg4 mi
10:00 PM54 °FClear.8 mph82%30.07 "Hg4 mi
9:30 PM54 °FPassing clouds.10 mph82%30.07 "Hg4 mi
9:00 PM52 °FFog.7 mph88%30.07 "Hg2 mi
8:30 PM48 °FFog.5 mph87%30.07 "Hg2 mi
8:00 PM50 °FFog.2 mph88%30.07 "Hg3 mi
7:30 PM52 °FFog.1 mph82%30.07 "Hg3 mi
7:00 PM48 °FFog.6 mph94%30.07 "Hg3 mi
6:30 PM52 °FClear.5 mph82%30.07 "Hg5 mi
6:00 PM54 °FOvercast.5 mph82%30.07 "HgN/A
5:30 PM55 °FOvercast.3 mph77%30.07 "HgN/A
5:00 PM55 °FSunny.3 mph77%30.07 "Hg10 mi
4:30 PM57 °FSunny.7 mph67%30.07 "Hg10 mi
4:00 PM59 °FPassing clouds.5 mph63%30.07 "HgN/A
3:30 PM59 °FOvercast.10 mph63%30.07 "HgN/A
3:00 PM61 °FPassing clouds.8 mph59%30.07 "HgN/A
Weather by CustomWeather, © 2016

See weather overviewHow to use our weather pages